Weather History for Williston, ND

Change the Weather History Date:

Tuesday, June 3, 2014

  Actual Average Record
Temperature  
Mean Temperature 59 °F 60 °F  
Max Temperature 76 °F 73 °F 93 °F (1988)
Min Temperature 42 °F 46 °F 31 °F (1998)
Degree Days  
Heating Degree Days 6 6  
Month to date heating degree days 17 20  
Since 1 June heating degree days 17 20  
Since 1 July heating degree days 9246 8894  
Cooling Degree Days 0 1  
Month to date cooling degree days 0 3  
Year to date cooling degree days 21 16  
Since 1 June cooling degree days 0 3  
Growing Degree Days 8 (Base 50)    
Moisture  
Dew Point 48 °F    
Average Humidity 71    
Maximum Humidity 100    
Minimum Humidity 41    
Precipitation  
Precipitation 0.00 in 0.08 in 1.50 in (1914)
Month to date precipitation 0.48 0.23  
Year to date precipitation 4.57 4.84  
Sea Level Pressure  
Sea Level Pressure 29.89 in    
Wind  
Wind Speed 6 mph (SSE)    
Max Wind Speed 16 mph    
Max Gust Speed 21 mph    
Visibility 7 miles    
Events Fog , Rain    
T = Trace of Precipitation, MM = Missing Value Source: NWS Daily Summary

Daily Weather History Graph

Daily Weather History Graph

Search for Another Location

Airport:

Trip Planner

Search our weather history database for the weather conditions in past years. The results will help you decide how hot, cold, wet, or windy it might be!

Date:

Astronomy

Jun. 03, 2014 Rise Set
Actual Time 5:57 AM CDT 9:48 PM CDT
Civil Twilight 5:16 AM CDT 10:29 PM CDT
Nautical Twilight 4:21 AM CDT 11:24 PM CDT
Astronomical Twilight 2:58 AM CDT 12:49 AM CDT
Moon 11:39 AM CDT (6/3) 1:02 AM CDT (6/3)
Length of Visible Light 17h 12m
Length of Day
15h 51m
Waxing Crescent, 30% of the Moon is Illuminated
Jun 3
Waxing Crescent
Jun 5
First Quarter
Jun 12
Full
Jun 19
Last Quarter
Jun 27
New

Hourly Weather History & Observations

Time (CDT) Temp. Windchill Dew Point Humidity Pressure Visibility Wind Dir Wind Speed Gust Speed Precip Events Conditions
12:52 AM 51.1 °F - 48.9 °F 92% 29.97 in 10.0 mi Calm Calm - N/A   Clear
1:52 AM 46.9 °F - 45.0 °F 93% 29.97 in 10.0 mi Calm Calm - N/A   Clear
2:52 AM 45.0 °F - 44.1 °F 97% 29.96 in 9.0 mi Calm Calm - N/A   Clear
3:46 AM 44.1 °F 42.5 °F 42.1 °F 93% 29.93 in 1.5 mi South 3.5 mph - N/A   Clear
3:52 AM 43.0 °F 41.3 °F 42.1 °F 97% 29.95 in 1.0 mi South 3.5 mph - N/A   Clear
4:00 AM 45.0 °F - 43.0 °F 93% 29.92 in 3.0 mi Calm Calm - N/A   Clear
4:52 AM 45.0 °F - 44.1 °F 97% 29.94 in 6.0 mi Calm Calm - N/A   Clear
5:50 AM 42.8 °F - 42.8 °F 100% 29.92 in 1.0 mi Calm Calm - N/A   Clear
5:52 AM 43.0 °F - 42.1 °F 97% 29.94 in 0.5 mi Calm Calm - N/A Fog Fog
5:54 AM 43.0 °F - 42.1 °F 97% 29.92 in 0.2 mi Calm Calm - N/A Fog Fog
5:59 AM 42.1 °F - 41.0 °F 96% 29.92 in 0.2 mi Calm Calm - N/A Fog Fog
6:07 AM 43.0 °F - 43.0 °F 100% 29.92 in 0.2 mi Calm Calm - N/A Fog Fog
6:21 AM 43.0 °F - 43.0 °F 100% 29.92 in 0.8 mi Calm Calm - N/A   Mist
6:25 AM 44.1 °F - 43.0 °F 96% 29.92 in 2.0 mi Calm Calm - N/A   Partly Cloudy
6:32 AM 45.0 °F - 44.1 °F 97% 29.93 in 4.0 mi Calm Calm - N/A   Clear
6:49 AM 46.4 °F - 44.6 °F 93% 29.92 in 2.0 mi Calm Calm - N/A   Clear
6:52 AM 46.9 °F - 46.0 °F 97% 29.94 in 2.0 mi Calm Calm - N/A   Clear
7:00 AM 48.9 °F - 48.0 °F 97% 29.92 in 6.0 mi Calm Calm - N/A   Clear
7:52 AM 54.0 °F - 51.1 °F 90% 29.92 in 8.0 mi SE 4.6 mph - N/A   Clear
8:52 AM 57.9 °F - 51.1 °F 78% 29.89 in 10.0 mi East 3.5 mph - N/A   Clear
9:52 AM 63.0 °F - 52.0 °F 67% 29.88 in 10.0 mi NNE 4.6 mph - N/A   Clear
10:52 AM 66.9 °F - 54.0 °F 63% 29.88 in 10.0 mi Variable 3.5 mph - N/A   Clear
11:52 AM 70.0 °F - 52.0 °F 53% 29.87 in 10.0 mi Variable 6.9 mph - N/A   Clear
12:52 PM 71.1 °F - 52.0 °F 51% 29.86 in 10.0 mi South 8.1 mph - N/A   Clear
1:52 PM 73.9 °F - 51.1 °F 45% 29.84 in 10.0 mi East 9.2 mph - N/A   Clear
2:52 PM 75.0 °F - 51.1 °F 43% 29.83 in 10.0 mi South 10.4 mph - N/A   Partly Cloudy
3:52 PM 75.0 °F - 50.0 °F 41% 29.82 in 10.0 mi SE 11.5 mph 17.3 mph N/A   Clear
4:52 PM 75.9 °F - 52.0 °F 43% 29.81 in 10.0 mi Variable 5.8 mph - N/A   Partly Cloudy
5:52 PM 73.9 °F - 50.0 °F 43% 29.82 in 10.0 mi SSE 13.8 mph 20.7 mph N/A   Mostly Cloudy
6:52 PM 73.9 °F - 48.9 °F 41% 29.79 in 10.0 mi SSE 12.7 mph - N/A   Scattered Clouds
7:52 PM 71.1 °F - 52.0 °F 51% 29.78 in 10.0 mi SSE 8.1 mph - N/A   Clear
8:52 PM 70.0 °F - 52.0 °F 53% 29.79 in 10.0 mi SSE 13.8 mph - N/A   Clear
9:52 PM 66.0 °F - 54.0 °F 65% 29.81 in 10.0 mi Variable 4.6 mph - N/A   Clear
10:52 PM 64.9 °F - 53.1 °F 65% 29.82 in 10.0 mi SE 3.5 mph - 0.00 in Rain Light Rain
11:52 PM 63.0 °F - 54.0 °F 72% 29.84 in 10.0 mi South 5.8 mph - 0.00 in   Clear